Weather History for Lone Rock, WI

Change the Weather History Date:

Thursday, December 6, 2012

  Actual Average Record
Temperature  
Mean Temperature 40 °F -  
Max Temperature 46 °F 36 °F 48 °F (2001)
Min Temperature 32 °F 21 °F -14 °F (2007)
Degree Days  
Heating Degree Days 24    
Moisture  
Dew Point 32 °F    
Average Humidity 70    
Maximum Humidity 85    
Minimum Humidity 63    
Precipitation  
Precipitation 0.00 in - - ()
Sea Level Pressure  
Sea Level Pressure 29.95 in    
Wind  
Wind Speed 6 mph (SSW)    
Max Wind Speed 10 mph    
Max Gust Speed -    
Visibility 10 miles    
Events      
Averages and records for this station are not official NWS values.
T = Trace of Precipitation, MM = Missing Value Source: NWS Daily Summary

Daily Weather History Graph

Daily Weather History Graph

Search for Another Location

Airport:

Trip Planner

Search our weather history database for the weather conditions in past years. The results will help you decide how hot, cold, wet, or windy it might be!

Date:

Astronomy

Dec. 06, 2012 Rise Set
Actual Time 7:18 AM CST 4:25 PM CST
Civil Twilight 6:46 AM CST 4:57 PM CST
Nautical Twilight 6:10 AM CST 5:33 PM CST
Astronomical Twilight 5:36 AM CST 6:07 PM CST
Moon No Moon Rise 12:01 PM CST (12/6)
Length of Visible Light 10h 11m
Length of Day
9h 06m
Waning Gibbous, 49% of the Moon is Illuminated
Dec 6
Waning Gibbous
Dec 13
New
Dec 19
First Quarter
Dec 28
Full
Jan 4
Last Quarter

Hourly Weather History & Observations

Time (CST) Temp. Windchill Dew Point Humidity Pressure Visibility Wind Dir Wind Speed Gust Speed Precip Events Conditions
12:56 AM 36.0 °F 29.6 °F 27.0 °F 70% 30.13 in 10.0 mi SE 8.1 mph - N/A   Mostly Cloudy
1:56 AM 36.0 °F 30.3 °F 27.0 °F 70% 30.12 in 10.0 mi ESE 6.9 mph - N/A   Overcast
2:56 AM 36.0 °F 28.5 °F 28.0 °F 73% 30.08 in 10.0 mi ESE 10.4 mph - N/A   Overcast
3:56 AM 36.0 °F 29.6 °F 28.0 °F 73% 30.05 in 10.0 mi ESE 8.1 mph - N/A   Scattered Clouds
4:56 AM 37.0 °F 31.6 °F 28.9 °F 73% 30.04 in 10.0 mi East 6.9 mph - N/A   Overcast
5:56 AM 39.9 °F 35.8 °F 30.0 °F 68% 30.01 in 10.0 mi SSE 5.8 mph - N/A   Overcast
6:56 AM 39.0 °F 35.7 °F 30.0 °F 70% 30.01 in 10.0 mi South 4.6 mph - N/A   Overcast
7:56 AM 39.9 °F 33.9 °F 30.0 °F 68% 30.00 in 10.0 mi South 9.2 mph - N/A   Overcast
8:56 AM 41.0 °F 36.4 °F 30.9 °F 67% 29.98 in 10.0 mi Variable 6.9 mph - N/A   Mostly Cloudy
9:56 AM 42.1 °F 40.2 °F 30.9 °F 65% 29.96 in 10.0 mi Variable 3.5 mph - N/A   Overcast
10:56 AM 44.1 °F - 32.0 °F 63% 29.94 in 10.0 mi Calm Calm - N/A   Overcast
11:56 AM 45.0 °F 41.8 °F 33.1 °F 63% 29.90 in 10.0 mi SSW 5.8 mph - N/A   Overcast
12:56 PM 45.0 °F 40.6 °F 33.1 °F 63% 29.87 in 10.0 mi SSW 8.1 mph - N/A   Overcast
1:56 PM 45.0 °F 42.6 °F 34.0 °F 65% 29.86 in 9.0 mi West 4.6 mph - N/A   Overcast
2:56 PM 46.0 °F 44.8 °F 35.1 °F 66% 29.87 in 9.0 mi WSW 3.5 mph - N/A   Overcast
3:56 PM 46.0 °F 43.9 °F 35.1 °F 66% 29.86 in 10.0 mi WSW 4.6 mph - N/A   Scattered Clouds
4:56 PM 46.0 °F 44.8 °F 35.1 °F 66% 29.86 in 10.0 mi SW 3.5 mph - N/A   Clear
5:56 PM 44.1 °F 41.5 °F 35.1 °F 71% 29.87 in 10.0 mi West 4.6 mph - N/A   Clear
6:56 PM 43.0 °F - 35.1 °F 74% 29.89 in 10.0 mi Calm Calm - N/A   Partly Cloudy
7:56 PM 43.0 °F 40.3 °F 35.1 °F 74% 29.90 in 10.0 mi West 4.6 mph - N/A   Partly Cloudy
8:56 PM 42.1 °F 38.4 °F 34.0 °F 73% 29.91 in 10.0 mi NW 5.8 mph - N/A   Clear
9:56 PM 42.1 °F 38.4 °F 33.1 °F 70% 29.92 in 10.0 mi WNW 5.8 mph - N/A   Clear
10:56 PM 35.1 °F - 30.0 °F 82% 29.93 in 10.0 mi Calm Calm - N/A   Clear
11:56 PM 32.0 °F - 28.0 °F 85% 29.94 in 9.0 mi Calm Calm - N/A   Partly Cloudy